Location: Columbia
(38.9520°N, 92.3340°W)
Time: 09:16:08
(UTC-05:00)

CZ-2C R/B - Visible Passes

Search period start: 05 May 2016 00:00
Search period end: 15 May 2016 00:00
Orbit: 704 x 908 km, 98.2° (Epoch: 04 May)

Date Brightness Start Highest point End Pass type
(mag) Time Alt. Az. Time Alt. Az. Time Alt. Az.
05 May 4.9 01:01:39 22° NE 01:01:39 22° NE 01:04:36 10° NNE visible
05 May 4.7 02:42:43 23° NW 02:42:43 23° NW 02:44:54 10° NNW visible
06 May 5.3 00:36:31 14° ENE 00:36:31 14° ENE 00:38:51 10° NNE visible
06 May 4.3 02:17:34 33° NNW 02:17:34 33° NNW 02:20:29 10° NNW visible
07 May 4.1 01:52:26 41° N 01:52:26 41° N 01:55:47 10° N visible
08 May 4.3 01:27:17 35° NE 01:27:17 35° NE 01:30:51 10° N visible
08 May 5.0 03:08:21 15° WNW 03:08:21 15° WNW 03:09:49 10° NW visible
09 May 4.8 01:02:09 24° NE 01:02:09 24° NE 01:05:39 10° NNE visible
09 May 4.6 02:43:13 25° NW 02:43:13 25° NW 02:45:51 10° NNW visible
10 May 5.3 00:37:01 15° ENE 00:37:03 15° ENE 00:40:00 10° NNE visible
10 May 4.1 02:18:05 38° NW 02:18:05 38° NW 02:21:27 10° NNW visible
11 May 3.8 01:52:56 48° N 01:52:56 48° N 01:56:46 10° N visible
12 May 4.1 01:27:48 40° NE 01:27:48 40° NE 01:31:52 10° N visible
12 May 5.0 03:08:52 17° WNW 03:08:52 17° WNW 03:10:45 10° NW visible
13 May 4.7 01:02:41 26° ENE 01:02:41 26° ENE 01:06:43 10° N visible
13 May 4.4 02:43:44 27° WNW 02:43:44 27° WNW 02:46:48 10° NNW visible
14 May 5.2 00:37:33 16° ENE 00:37:55 17° ENE 00:41:09 10° NNE visible
14 May 3.8 02:18:36 44° NW 02:18:36 44° NW 02:22:26 10° NNW visible
